Tracking 26321 objects as of 27-Nov-2022
HD Live streaming from Space Station
objects crossing your sky now

STARLINK-4600

Track STARLINK-4600 now!
10-day predictions
STARLINK-4600 is classified as:


NORAD ID: 53628
Int'l Code: 2022-104AS
Perigee: 545.5 km
Apogee: 548.1 km
Inclination: 53.2 °
Period: 95.4 minutes
Semi major axis: 6917 km
RCS: Unknown
Launch date: August 28, 2022
Source: United States (US)
Launch site: AIR FORCE EASTERN TEST RANGE (AFETR)
aabbcc
Your satellite tracking list
Your tracking list is empty




NASA's NSSDC Master Catalog

Two Line Element Set (TLE):
1 53628U 22104AS  22330.91667824 -.00065439  00000-0 -41284-2 0  9996
2 53628  53.2161 215.1860 0001909  47.6677  80.8213 15.08863803  1301
Source of the keplerian elements: AFSPC